COSMOS 1275 DEB

Satellite information

Favourite Embed

Satellite Type and Status

DEBRISIN ORBIT

Key statistics

Satellite COSMOS 1275 DEB at a glance.

Uptime

16168

Days in orbit

Revolutions

≈ 14.0

Per day

Orbit

LEO

Low Earth Orbit

Inclination

82.8

Latest

Satellite identification and parameters

Extended collection of information and parameters for COSMOS 1275 DEB.

Object identification

Identified? True

Debris? True

Object name: COSMOS 1275 DEB

International designator: 1981-053KE

Object number (NORAD): 15780

Object ID (CCSDS): 15780

Country: COMMONWEALTH OF INDEPENDENT STATES (CIS)

Current information (Y/N): Y

RCS size: SMALL

Orbital parameters

Period: 103.176 minutes

Inclination: 82.8132 deg

SMA: 7286.937 km

Apoapsis: 946.553 km

Periapsis: 871.05 km

RAAN: 110.8683 deg

Eccentricy: 0.00518077

Argument of periapsis: 235.7145 deg

Mean anomaly: 179.6316 deg

Mean motion: 13.95678161 rev/day

Mean motion (dot): 0.00001258 rev/day2

B* drag term: 0.0009025583 1/REarth

Two-line elements (TLE)

Creation date: Sept. 8, 2025, 6:18 p.m.

Reference frame: TEME

Reference center: EARTH

Epoch: Sept. 8, 2025, 3:07 p.m. UTC

TLE line 0: 0 COSMOS 1275 DEB

TLE line 1: 1 15780U 81053KE 25251.63011012 .00001258 00000-0 90256-3 0 9998

TLE line 2: 2 15780 82.8132 110.8683 0051808 235.7145 179.6316 13.95678161 40940

Live tracking on map

Real-time ground track for satellite COSMOS 1275 DEB.

In-orbit conjunctions

A list of the most updated potential collisions computed for object COSMOS 1275 DEB.

Target Orbit TCA Probability of collision Miss distance Type
CZ-6A DEB SSO 2025-03-12 14:00:11 0.0001267911 173.0 (m) DEBRIS
SL-8 R/B LEO 2024-12-26 23:30:38 0.000307689 126.0 (m) ROCKET BODY

Associated space launch

Navigation satellite providing location information for the Tsiklon-B navigation system

COSMOS 1275 DEB was lifted into orbit during the mission ‘Kosmos-3M | Parus 27’, on board a Kosmos-3M space rocket.

The launch took place on June 4, 1981, 3:41 p.m. from 132/2.

For more information about the launch, click the button.

Launch to space Kosmos-3M | Parus 27
Kosmos-3M | Parus 27

Agency: N/A

Status: Launch Successful

Launch date: June 4, 1981, 3:41 p.m. UTC

Rocket: Kosmos-3M

Launch pad: 132/2

Location: Plesetsk Cosmodrome, Russian Federation

...

Latest news about this satellite

There are no fresh news available about this satellite. Check back as we update our databases every day.


Newsletter sign-up

Weekly statistics, charts and insights to help you stay on top of the space industry.